Regional Weather Roundup
Issued by NWS

Home | Current Version | Previous Version | Text Only | Print | Product List | Glossary On
Versions: 1 2 3 4 5 6 7 8 9 10 11 12 13 14 15 16 17 18 19 20 21 22 23 24 25 26 27 28 29 30 31 32 33 34 35 36 37 38 39 40 41 42 43 44 45 46 47 48 49 50
000
ASUS43 KTOP 020059
RWRKS

WEATHER ROUNDUP FOR KANSAS
NATIONAL WEATHER SERVICE GOODLAND KS
800 PM CDT SUN MAY 01 2016

NOTE:  "FAIR" INDICATES FEW OR NO CLOUDS BELOW 12,000 FEET WITH NO
SIGNIFICANT WEATHER AND/OR OBSTRUCTIONS TO VISIBILITY.

KSZ001>006-013>018-027>032-041>047-020200-
NORTHWEST KANSAS

CITY           SKY/WX    TMP DP  RH WIND       PRES   REMARKS
GOODLAND       CLOUDY    46  31  55 N14       30.21S
HAYS           CLOUDY    46  34  61 N14       30.18R
HILL CITY      CLOUDY    48  40  73 NE7       30.20S
RUSSELL        CLOUDY    47  40  76 N10       30.16R
$$

KSZ061>065-074>080-084>089-020200-
SOUTHWEST KANSAS

CITY           SKY/WX    TMP DP  RH WIND       PRES   REMARKS
DODGE CITY     CLOUDY    45  38  76 N10       30.18R
ELKHART          N/A     43  39  86 NW5         N/A
GARDEN CITY    CLOUDY    46  38  73 N10       30.19R
GREAT BEND     CLOUDY    46  37  71 N10G16    30.16S
LIBERAL        CLOUDY    45  37  76 N7        30.20S
$$

KSZ066>073-081>083-090>101-020200-
SOUTHEAST KANSAS

CITY           SKY/WX    TMP DP  RH WIND       PRES   REMARKS
CHANUTE        CLOUDY    58  47  66 N10       30.04S
COFFEYVILLE    CLOUDY    58  48  69 W5        30.07R
HUTCHINSON     CLOUDY    50  40  68 N9        30.13R
MEDICINE LODGE   N/A     50  40  68 N10       30.14R
NEWTON         CLOUDY    48  39  71 N13       30.12S
PARSONS        MOCLDY    59  49  69 W7        30.08R
WICHITA INTL   CLOUDY    52  41  66 N14       30.11R
WICHITA JABRA  CLOUDY    50  43  77 N13       30.10R
WICHITA MCCONL MOCLDY    52  43  71 N10       30.11R
WINFIELD       CLOUDY    52  44  74 N7        30.13R
$$

KSZ007>012-019>026-033>040-048>060-102>105-020200-
NORTHEAST KANSAS

CITY           SKY/WX    TMP DP  RH WIND       PRES   REMARKS
CONCORDIA      CLOUDY    47  40  76 N9        30.16S
EMPORIA        PTCLDY    51  43  74 N8G18     30.08S
LAWRENCE       CLOUDY    51  45  79 N16       30.10R
MANHATTAN      CLOUDY    50  41  71 N8G16     30.13S
OLATHE IND     CLOUDY    52  45  77 N17       30.09R
OLATHE EXE     CLOUDY    52  45  77 N14G21    30.07R
SALINA         CLOUDY    50  42  74 N15       30.15R
TOPEKA BILLARD CLOUDY    51  44  77 NW8       30.11R
TOPEKA FORBES  CLOUDY    52  44  74 N10       30.10R
$$



USA.gov is the U.S. government's official web portal to all federal, state and local government web resources and services.